Le nostre stazioni meteo in Italia

Pubblicità
Il mio iltempo24.it
Gioia Del Colle, Italia (16312): Temperatura & dewpoint: 30.06.2020 00:00:00 - 06.07.2020 00:00:00 (CEST)Gioia Del Colle, Italia (16312): velocità del vento: 30.06.2020 00:00:00 - 06.07.2020 00:00:00 (CEST)Gioia Del Colle, Italia (16312): direzione del vento: 30.06.2020 00:00:00 - 06.07.2020 00:00:00 (CEST)Gioia Del Colle, Italia (16312): reduced air pressure: 30.06.2020 00:00:00 - 06.07.2020 00:00:00 (CEST)Gioia Del Colle, Italia (16312): visibility: 30.06.2020 00:00:00 - 06.07.2020 00:00:00 (CEST)
Data & Tempo tt [°C] td [°C] ff [km/h] ff [kn] dd ppp [hPa] vv [km]
06.07.2020 00:00:00 - - - - - - -
05.07.2020 23:00:00 21,0 17,4 15 8 NNO 1010,1 10
05.07.2020 22:00:00 21,0 17,0 16 9 N - 10
05.07.2020 21:00:00 22,0 17,0 18 10 N - 10
05.07.2020 20:00:00 23,0 16,5 22 12 N 1009,4 10
05.07.2020 19:00:00 24,0 14,0 22 12 NNO - 10
05.07.2020 18:00:00 25,0 11,0 22 12 NNO - 10
05.07.2020 17:00:00 25,2 11,4 26 14 NNO 1009,2 10
05.07.2020 16:00:00 25,0 12,0 24 13 NNO - 10
05.07.2020 15:00:00 25,0 14,0 26 14 N - 10
05.07.2020 14:00:00 25,0 16,2 26 14 N 1010,4 10
05.07.2020 13:00:00 24,0 17,0 26 14 N - 10
05.07.2020 12:00:00 25,0 17,0 22 12 NNO - 10
05.07.2020 11:00:00 23,6 17,4 24 13 NNO 1011,1 10
05.07.2020 10:00:00 22,0 17,0 24 13 NNO - 10
05.07.2020 09:00:00 21,0 16,0 24 13 NNO - 10
05.07.2020 08:00:00 20,8 16,2 22 12 NO 1011,4 10
05.07.2020 07:00:00 20,0 16,0 18 10 NO - 10
05.07.2020 06:00:00 18,0 16,0 15 8 NO - 10
05.07.2020 05:00:00 18,0 16,3 9 5 NO 1011,4 10
05.07.2020 04:00:00 19,0 17,0 13 7 NO - 10
05.07.2020 03:00:00 19,0 16,0 18 10 NNO - 10
05.07.2020 02:00:00 19,0 17,3 9 5 N 1012,9 10
05.07.2020 01:00:00 19,0 17,0 9 5 NNO - 10
05.07.2020 00:00:00 19,0 17,0 13 7 NNO - 10
04.07.2020 23:00:00 19,0 16,6 16 9 NNO 1012,6 10
04.07.2020 22:00:00 19,0 16,0 13 7 NNO - 10
04.07.2020 21:00:00 19,0 16,0 11 6 N - 10
04.07.2020 20:00:00 20,0 15,0 13 7 NO 1012,1 10
04.07.2020 19:00:00 21,0 15,0 15 8 N - 10
04.07.2020 18:00:00 21,0 16,0 13 7 ONO - 8
04.07.2020 17:00:00 20,6 13,8 16 9 NNO 1012,1 7
04.07.2020 16:00:00 19,0 18,0 11 6 O - 7
04.07.2020 15:00:00 19,0 18,0 28 15 S - 4,0
04.07.2020 14:00:00 23,6 15,4 26 14 N 1010,8 10
04.07.2020 13:00:00 27,0 16,0 22 12 N - 10
04.07.2020 12:00:00 27,0 16,0 16 9 N - 10
04.07.2020 11:00:00 26,6 16,8 16 9 NNO 1011,4 10
04.07.2020 10:00:00 26,0 18,0 16 9 NNO - 10
04.07.2020 09:00:00 25,0 17,0 15 8 NNO - 10
04.07.2020 08:00:00 23,2 17,7 15 8 N 1011,5 10
04.07.2020 07:00:00 21,0 19,0 4 2 NNE - 9
04.07.2020 06:00:00 20,0 18,0 9 5 NO - 8
04.07.2020 05:00:00 20,0 19,0 9 5 NNO 1011,4 8
04.07.2020 04:00:00 20,0 20,0 9 5 NO - 8
04.07.2020 03:00:00 20,0 20,0 8 4 NNO - 8
04.07.2020 02:00:00 20,6 20,6 5 3 NNO 1011,4 8
04.07.2020 01:00:00 21,0 21,0 8 4 NNE - 8
04.07.2020 00:00:00 22,0 21,0 9 5 N - 10
03.07.2020 23:00:00 22,8 21,1 13 7 N 1011,0 10
03.07.2020 22:00:00 24,0 20,0 18 10 N - 10
03.07.2020 21:00:00 24,0 20,0 13 7 N - 10
03.07.2020 20:00:00 25,4 19,5 9 5 NNE 1009,0 10
03.07.2020 19:00:00 23,0 19,0 13 7 O - 10
03.07.2020 18:00:00 28,0 13,0 16 9 N - 10
03.07.2020 17:00:00 29,6 14,2 9 5 E 1007,2 10
03.07.2020 16:00:00 25,0 17,0 16 9 E - 10
03.07.2020 15:00:00 25,0 17,0 18 10 ENE - 8
03.07.2020 14:00:00 32,2 9,7 4 2 N 1007,3 10
03.07.2020 13:00:00 33,0 11,0 4 2 - - 10
03.07.2020 12:00:00 32,0 11,0 5 3 - - 10
03.07.2020 11:00:00 30,4 13,2 8 4 NNE 1008,1 10
03.07.2020 10:00:00 29,0 13,0 8 4 NO - 10
03.07.2020 09:00:00 28,0 15,0 2 1 - - 10
03.07.2020 08:00:00 24,6 18,3 4 2 N 1008,8 10
03.07.2020 07:00:00 22,0 20,0 2 1 - - 10
03.07.2020 06:00:00 19,0 19,0 5 3 NNE - 10
03.07.2020 05:00:00 19,2 19,2 5 3 ONO 1009,3 10
03.07.2020 04:00:00 20,0 20,0 4 2 NNE - 10
03.07.2020 03:00:00 20,0 20,0 5 3 NNE - 10
03.07.2020 02:00:00 20,2 19,5 5 3 NNO 1009,5 10
03.07.2020 01:00:00 21,0 19,0 2 1 SSO - 10
03.07.2020 00:00:00 22,0 20,0 2 1 - - 10
02.07.2020 23:00:00 22,8 20,5 2 1 ONO 1009,3 10
02.07.2020 22:00:00 24,0 20,0 9 5 NNE - 10
02.07.2020 21:00:00 26,0 20,0 5 3 NNE - 10
02.07.2020 20:00:00 27,4 20,2 9 5 NNO 1008,3 10
02.07.2020 19:00:00 27,0 20,0 9 5 SO - 10
02.07.2020 18:00:00 28,0 17,0 11 6 O - 10
02.07.2020 17:00:00 29,2 18,0 13 7 S 1007,9 10
02.07.2020 16:00:00 31,0 18,0 15 8 S - 10
02.07.2020 15:00:00 34,0 15,0 16 9 - - 10
02.07.2020 14:00:00 33,2 15,7 15 8 SSE 1007,9 10
02.07.2020 13:00:00 33,0 16,0 9 5 S - 10
02.07.2020 12:00:00 32,0 16,0 8 4 - - 10
02.07.2020 11:00:00 30,0 17,5 4 2 SE 1009,0 10
02.07.2020 10:00:00 29,0 18,0 5 3 N - 10
02.07.2020 09:00:00 27,0 18,0 9 5 N - 10
02.07.2020 08:00:00 26,2 18,4 11 6 NNE 1009,5 10
02.07.2020 07:00:00 23,0 19,0 2 1 NNE - 10
02.07.2020 06:00:00 20,0 17,0 5 3 N - 10
02.07.2020 05:00:00 20,2 18,2 4 2 N 1010,3 10
02.07.2020 04:00:00 20,0 18,0 5 3 NNO - 10
02.07.2020 03:00:00 21,0 17,0 4 2 NNO - 10
02.07.2020 02:00:00 21,0 17,4 4 2 SSO 1011,2 10
02.07.2020 01:00:00 21,0 18,0 2 1 SO - 10
02.07.2020 00:00:00 22,0 19,0 9 5 S - 10
01.07.2020 23:00:00 22,8 19,2 9 5 SSO 1010,5 10
01.07.2020 22:00:00 24,0 18,0 13 7 S - 10
01.07.2020 21:00:00 25,0 17,0 11 6 S - 10
01.07.2020 20:00:00 27,0 16,0 15 8 SSE 1009,8 10
01.07.2020 19:00:00 29,0 14,0 16 9 S - 10
01.07.2020 18:00:00 31,0 14,0 16 9 S - 10
01.07.2020 17:00:00 33,2 14,3 16 9 S 1008,7 10
01.07.2020 16:00:00 33,0 15,0 8 4 OSO - 10
01.07.2020 15:00:00 31,0 14,0 8 4 SO - 10
01.07.2020 14:00:00 33,8 15,3 4 2 S 1009,5 10
01.07.2020 13:00:00 31,0 15,0 11 6 S - 10
01.07.2020 12:00:00 32,0 15,0 11 6 SE - 10
01.07.2020 11:00:00 30,4 14,5 8 4 ONO 1010,7 10
01.07.2020 10:00:00 29,0 16,0 2 1 NE - 10
01.07.2020 09:00:00 28,0 17,0 9 5 NNE - 10
01.07.2020 08:00:00 25,0 15,1 11 6 N 1011,5 10
01.07.2020 07:00:00 23,0 18,0 5 3 N - 10
01.07.2020 06:00:00 19,0 17,0 2 1 NNE - 10
01.07.2020 05:00:00 19,8 17,8 2 1 N 1011,5 10
01.07.2020 04:00:00 20,0 16,0 2 1 NNE - 10
01.07.2020 03:00:00 20,0 17,0 5 3 N - 10
01.07.2020 02:00:00 21,0 16,4 2 1 NO 1012,1 10
01.07.2020 01:00:00 22,0 17,0 4 2 S - 10
01.07.2020 00:00:00 22,0 18,0 2 1 S - 10
30.06.2020 23:00:00 23,0 14,8 2 1 SSO 1011,8 10
30.06.2020 22:00:00 24,0 17,0 2 1 S - 10
30.06.2020 21:00:00 26,0 17,0 8 4 S - 10
30.06.2020 20:00:00 27,0 14,1 13 7 S 1010,6 10
30.06.2020 19:00:00 30,0 15,0 16 9 S - 10
30.06.2020 18:00:00 31,0 13,0 9 5 NE - 10
30.06.2020 17:00:00 31,0 13,8 13 7 NNE 1010,2 10
30.06.2020 16:00:00 31,0 18,0 15 8 N - 10
30.06.2020 15:00:00 31,0 14,0 13 7 N - 10
30.06.2020 14:00:00 31,0 15,0 11 6 NE 1011,1 10
30.06.2020 13:00:00 31,0 15,0 9 5 NNE - 10
30.06.2020 12:00:00 29,0 15,0 8 4 NNO - 10
30.06.2020 11:00:00 28,4 15,3 9 5 NNO 1011,5 10
30.06.2020 10:00:00 28,0 16,0 13 7 N - 10
30.06.2020 09:00:00 27,0 15,0 11 6 NNO - 10
30.06.2020 08:00:00 25,6 16,2 11 6 NNO 1010,9 10
30.06.2020 07:00:00 23,0 17,0 4 2 - - 10
30.06.2020 06:00:00 21,0 16,0 5 3 NO - 10
30.06.2020 05:00:00 20,0 15,9 5 3 N 1011,1 10
30.06.2020 04:00:00 21,0 15,0 5 3 NO - 10
30.06.2020 03:00:00 21,0 15,0 4 2 - - 10
30.06.2020 02:00:00 21,8 18,2 2 1 NO 1011,4 10
30.06.2020 01:00:00 22,0 16,0 4 2 - - 10
30.06.2020 00:00:00 22,0 18,0 9 5 SSO - 10

tt = Temperatura
td = dewpoint
ff = velocità del vento
dd = direzione del vento
ppp = reduced air pressure
vv = visibility

Stazioni seguenti

WeatherPro
AMSI
MeteoEarth